Dewpoint
71 72 72 71 71 70 68 68 68 68 68 67 65 63 64 65 58 60 62 61 64 64 64 64 63 63 63 63 63 63 62 64 62
72 72 71 71 71 69 68 66 66 66 65 64 63 62 64 57 58 59 61 62 64 64 64 63 63 63 63 63 63 63 63 63 61
72 72 71 71 70 67 66 65 65 65 64 64 63 63 64 58 59 61 62 65 64 64 63 63 63 63 62 62 62 62 62 61 61
72 71 71 71 70 68 67 65 65 64 64 64 63 64 63 58 58 59 61 66 64 64 63 63 62 62 62 62 62 61 61 62 61
71 70 70 70 70 69 67 66 65 64 64 64 64 63 63 58 58 60 62 65 64 64 63 62 62 62 61 61 61 61 61 61 61
68 67 69 69 70 69 68 67 66 66 65 64 64 63 56 57 58 60 66 64 64 64 63 63 62 61 61 61 61 60 61 60 60
66 66 68 69 69 69 68 67 66 63 59 59 62 57 56 57 58 61 66 64 64 64 63 62 62 61 61 60 60 60 60 60 60
67 67 65 65 65 64 65 64 61 60 58 58 56 55 55 56 58 63 66 64 63 63 63 62 62 61 61 60 60 59 59 59 59
66 65 64 62 61 61 60 59 58 58 57 56 56 56 56 56 58 62 65 65 63 63 62 62 62 61 61 60 59 59 58 58 58
65 64 64 61 60 59 58 57 57 56 55 55 55 55 56 57 58 61 64 66 65 63 63 62 62 61 61 60 59 59 58 57 57
63 64 64 61 60 58 56 55 56 55 55 54 53 52 54 55 57 58 62 65 66 65 64 64 63 62 62 61 60 59 59 58 57
62 61 61 60 59 56 55 54 54 55 56 56 54 54 53 53 54 56 58 62 64 66 66 66 65 64 64 63 62 61 61 60 59
61 60 59 58 56 55 55 54 56 58 60 60 59 58 59 56 55 55 55 58 58 63 66 66 66 66 65 65 65 64 63 62 61
59 58 57 56 56 55 56 56 57 61 60 60 59 59 58 57 56 55 55 57 58 59 63 64 64 65 65 65 65 64 64 64 63
58 57 55 55 58 59 60 60 61 60 60 58 56 58 59 59 58 56 55 56 57 58 60 61 60 62 63 64 64 64 62 64 64
56 56 57 59 60 60 60 61 61 61 61 60 59 58 58 58 58 59 58 58 59 59 60 61 62 60 63 63 63 62 62 62 61
58 60 60 60 61 60 61 62 62 62 62 58 59 57 58 58 58 58 59 59 60 60 60 62 62 63 61 59 57 58 60 60 60
63 63 62 63 62 63 63 63 63 61 62 60 59 56 56 58 59 58 57 58 59 58 58 59 58 58 57 56 55 56 57 59 61
65 65 64 64 65 64 64 64 64 64 62 61 61 62 60 58 56 57 56 56 56 57 57 56 56 56 55 54 54 55 56 58 59
64 64 64 64 65 65 65 64 62 62 62 62 62 61 61 60 58 56 58 58 59 58 56 56 54 53 54 54 54 55 56 57 59
Lifted_Index
0 0 0 0 1 2 3 3 3 4 4 4 5 5 5 5 5 5 4 4 4 4 4 4 5 5 4 4 4 4 4 4 4
0 0 0 0 1 2 3 4 4 5 5 5 5 6 6 5 5 5 4 4 4 4 4 4 5 5 5 5 5 4 4 4 5
-0 -0 0 0 1 2 4 5 5 5 5 6 6 6 6 5 5 4 4 4 4 4 4 4 4 5 5 5 5 4 4 5 5
-0 0 0 1 1 2 4 5 5 5 5 6 6 6 5 5 4 4 4 4 4 4 4 4 5 5 5 5 5 5 5 5 5
0 0 1 1 1 2 3 4 5 5 5 6 6 6 5 5 4 4 4 4 4 4 4 4 5 5 5 5 5 5 5 5 5
1 1 1 1 1 2 2 3 4 5 5 6 6 5 5 5 4 4 4 3 4 4 4 4 5 5 5 5 5 5 5 5 5
1 1 1 1 1 2 2 3 4 5 5 5 5 5 5 4 4 4 3 3 4 4 4 4 5 5 5 5 5 5 5 5 5
1 1 2 2 2 2 3 3 4 4 4 4 4 4 4 4 4 4 3 3 3 4 4 4 4 5 5 5 5 6 6 6 6
1 1 2 3 3 3 4 4 4 4 4 4 4 4 4 4 4 3 3 3 3 3 4 4 4 4 4 5 5 6 6 6 6
1 1 2 2 3 3 4 4 4 4 4 4 4 4 4 4 4 3 3 3 3 3 3 3 3 4 4 4 5 5 5 6 6
1 1 1 2 3 3 4 5 5 4 4 4 5 5 4 4 4 3 3 3 2 2 2 2 3 3 3 3 4 4 5 5 5
1 1 2 2 3 4 5 5 5 4 3 3 4 4 4 4 4 4 3 3 3 2 2 1 2 2 2 2 2 3 3 4 4
2 2 2 3 4 5 5 5 4 3 2 2 2 3 3 3 4 4 4 4 3 3 2 2 1 1 1 1 1 2 2 3 3
3 3 3 4 4 4 4 4 3 2 1 1 1 2 2 2 3 3 4 4 3 3 3 2 2 2 2 1 1 1 2 2 2
3 3 4 4 3 3 2 2 1 0 0 1 1 1 1 2 2 2 3 3 3 3 3 3 3 3 2 1 1 1 2 2 2
3 3 3 2 2 1 1 0 -0 -1 -0 -0 0 1 1 1 1 2 2 2 2 2 2 2 2 3 2 2 2 2 2 3 3
2 2 1 1 0 -0 -1 -1 -1 -1 -1 -0 -0 -0 0 0 1 1 2 2 2 2 2 2 2 3 3 3 3 3 3 4 4
0 0 -0 -0 -1 -1 -1 -2 -2 -2 -1 -1 -0 -1 -1 -0 0 1 2 2 2 3 3 3 3 3 3 3 3 3 4 4 5
-1 -1 -1 -1 -1 -2 -2 -2 -2 -2 -1 -1 -1 -1 -1 -1 0 1 2 2 3 3 3 3 3 4 4 4 4 4 4 4 4
-1 -1 -1 -1 -2 -2 -2 -2 -2 -2 -1 -1 -1 -1 -1 -1 1 1 2 3 3 3 4 4 4 5 5 5 5 4 4 3 3